[[{"header":{"parameterUnit":"m.s-1","parameterCategory":1,"la1":30.2991,"la2":30.254,"lo1":-89.0895,"lo2":-89.0444,"dy":0.0017,"dx":0.0017,"nx":28,"ny":28,"refTime":"2025-07-27T03:00:00:Z","depth":0,"parameterNumber":2,"parameterNumberName":"U-component_of_WINDS"},"data":[0,0,0,0,0,0,0,0,0,0,0,0,0,0,0,0,0,0,0,0,0,0,0,0,0,0,0,0,0,0,0,0,0,0,0,0,0,0,0,0,0,0,0,0,0,0,0,0,0,0,0,0,0,0,0,0,0,0,-0.7486,-0.7486,0,-0.7525,-0.7525,-0.7525,-0.7525,-0.7525,-0.7524,-0.7524,-0.7565,-0.7566,-0.7568,0,0,0,0,0,0,0,0,0,0,0,0,0,-0.7414,-0.7415,-0.7486,-0.7486,-0.7487,-0.7525,-0.7525,-0.7526,-0.7525,-0.7525,-0.7524,-0.7524,-0.7564,-0.7566,-0.7568,0,0,0,0,0,0,0,0,0,0,0,0,0,-0.7448,-0.7416,-0.7486,-0.7491,-0.7492,-0.7524,-0.7525,-0.7526,-0.7526,-0.7525,-0.7524,-0.7523,-0.7564,-0.7566,-0.7568,-0.7598,0,0,-0.7575,-0.7576,0,0,0,0,0,0,0,0,-0.7446,-0.7451,-0.749,-0.7491,-0.7492,-0.7519,-0.7515,-0.755,-0.7526,-0.7513,-0.7524,-0.7523,-0.755,-0.7554,-0.7563,-0.76,-0.7602,-0.7576,-0.7577,-0.7578,-0.7579,0,0,0,0,0,0,0,-0.7444,-0.7449,-0.7501,-0.7491,-0.7492,-0.7492,-0.7496,-0.7521,-0.7536,-0.7514,-0.7514,-0.7519,-0.7551,-0.756,-0.7564,-0.7602,-0.7576,-0.7578,-0.7579,-0.758,-0.7667,-0.7668,0,0,0,0,0,0,-0.744,-0.7447,-0.75,-0.7502,-0.7467,-0.7494,-0.7499,-0.7511,-0.7535,-0.7538,-0.7519,-0.7518,-0.7557,-0.7561,-0.7565,-0.7602,-0.7578,-0.758,-0.7582,-0.7666,-0.7667,-0.7668,0,0,0,0,0,0,-0.7438,-0.7445,-0.7498,-0.7475,-0.7482,-0.7496,-0.751,-0.7513,-0.7522,-0.7539,-0.7542,-0.7526,-0.7556,-0.7562,-0.759,-0.7604,-0.7581,-0.7583,-0.7665,-0.7667,-0.7668,-0.7677,0,0,0,0,0,0,-0.7436,-0.7444,-0.7455,-0.7475,-0.7483,-0.7522,-0.7511,-0.7514,-0.7526,-0.7525,-0.7547,-0.7549,-0.7556,-0.7587,-0.7592,-0.7607,-0.7585,-0.7664,-0.7666,-0.7667,-0.7675,-0.7678,-0.7681,0,0,0,0,0,-0.7434,-0.7456,-0.7456,-0.7462,-0.7497,-0.7523,-0.7527,-0.7535,-0.7527,-0.7539,-0.755,-0.7549,-0.7601,-0.7589,-0.7596,-0.7611,-0.7663,-0.7665,-0.7667,-0.7674,-0.7677,-0.768,0,0,0,0,0,0,-0.7438,-0.7459,-0.7459,-0.7488,-0.7504,-0.7523,-0.7537,-0.7538,-0.7556,-0.7555,-0.7563,-0.7568,-0.7597,-0.7607,-0.7593,-0.7642,-0.7631,-0.7635,-0.7634,-0.7638,-0.764,-0.7638,-0.7587,0,0,0,0,0,-0.7442,-0.7461,-0.7478,-0.7502,-0.751,-0.7523,-0.7534,-0.7538,-0.7555,-0.7562,-0.7575,-0.7592,-0.7612,-0.7625,-0.7645,-0.7677,-0.7682,-0.769,-0.7693,-0.7695,-0.7698,-0.7717,-0.7721,-0.7675,-0.7675,-0.7675,0,0,-0.7451,-0.7465,-0.7476,-0.7504,-0.7516,-0.7536,-0.7528,-0.755,-0.7565,-0.7565,-0.7593,-0.7603,-0.7623,-0.7653,-0.7667,-0.7662,-0.7712,-0.7698,-0.7699,-0.7701,-0.7719,-0.7723,-0.7727,-0.7676,-0.7676,-0.7676,0,0,-0.7478,-0.749,-0.7511,-0.7524,-0.7544,-0.7552,-0.7557,-0.7577,-0.7583,-0.7611,-0.7612,-0.7631,-0.7665,-0.7679,-0.7691,-0.7724,-0.7724,-0.773,-0.7744,-0.7762,-0.7766,-0.7769,-0.7782,-0.7786,-0.7733,-0.7733,-0.7733,0,-0.7487,-0.7516,-0.7523,-0.7544,-0.7557,-0.7558,-0.7581,-0.7593,-0.7618,-0.7627,-0.7621,-0.7665,-0.7679,-0.7713,-0.7721,-0.773,-0.7737,-0.7728,-0.7765,-0.7768,-0.7771,-0.7783,-0.7788,-0.7734,-0.7734,-0.7734,-0.7734,0,-0.7527,-0.7547,-0.7563,-0.7587,-0.7601,-0.7623,-0.7634,-0.7647,-0.765,-0.7659,-0.7688,-0.7704,-0.7727,-0.7735,-0.7739,-0.777,-0.7767,-0.7763,-0.7753,-0.7776,-0.7788,-0.7792,-0.7735,-0.7734,-0.7734,-0.7734,0,0,-0.7557,-0.7584,-0.759,-0.7601,-0.7623,-0.7639,-0.7662,-0.7684,-0.7696,-0.7714,-0.7733,-0.7763,-0.776,-0.7773,-0.7778,-0.7793,-0.782,-0.7788,-0.7788,-0.7794,-0.7857,-0.786,-0.7865,-0.782,-0.7821,-0.7821,-0.7855,0,-0.7587,-0.7626,-0.7633,-0.7668,-0.7688,-0.7689,-0.7709,-0.7725,-0.7734,-0.7753,-0.7763,-0.7784,-0.7778,-0.7786,-0.7801,-0.7813,-0.7833,-0.7811,-0.7839,-0.784,-0.7834,-0.7871,-0.7874,-0.7905,-0.786,-0.786,-0.7861,0,-0.7627,-0.7645,-0.7682,-0.7701,-0.771,-0.7727,-0.7749,-0.7766,-0.7785,-0.779,-0.7806,-0.7809,-0.7833,-0.7822,-0.7856,-0.7841,-0.7853,-0.7861,-0.7862,-0.7865,-0.7852,-0.7876,-0.7915,-0.792,-0.7868,-0.7867,-0.7867,0,-0.7646,-0.768,-0.7706,-0.7716,-0.7739,-0.7752,-0.7762,-0.778,-0.7793,-0.7812,-0.7821,-0.7843,-0.7855,-0.7872,-0.7881,-0.7872,-0.7915,-0.7904,-0.7921,-0.7921,-0.7931,-0.793,-0.7973,-0.7937,-0.7937,-0.7937,-0.7937,0,-0.7679,-0.7702,-0.7715,-0.7732,-0.7758,-0.7766,-0.7791,-0.7801,-0.7817,-0.7836,-0.7839,-0.7857,-0.7868,-0.7888,-0.7895,-0.7923,-0.7928,-0.7934,-0.7936,-0.7934,-0.7934,-0.7942,-0.7941,-0.7938,-0.7938,-0.7938,-0.7938,0,-0.7705,-0.7715,-0.7745,-0.7764,-0.777,-0.7788,-0.7805,-0.7822,-0.7831,-0.7855,-0.7861,-0.7876,-0.7899,-0.791,-0.7939,-0.7944,-0.7976,-0.7976,-0.797,-0.7971,-0.7987,-0.7986,-0.8039,-0.8046,-0.8004,-0.8005,-0.8005,0,-0.7726,-0.7743,-0.7765,-0.7778,-0.7788,-0.7809,-0.7823,-0.7831,-0.7846,-0.7868,-0.7882,-0.7906,-0.7925,-0.7962,-0.7976,-0.7999,-0.8,-0.8017,-0.8003,-0.8001,-0.8001,-0.8,-0.8002,-0.8019,-0.802,-0.802,-0.802,0,-0.7762,-0.7766,-0.7785,-0.7806,-0.7823,-0.784,-0.7857,-0.7867,-0.7879,-0.7895,-0.7919,-0.7934,-0.7963,-0.7987,-0.8011,-0.8022,-0.8024,-0.8024,-0.803,-0.8028,-0.8024,-0.8027,-0.7977,-0.8023,-0.8023,-0.8023,-0.8022,-0.8022,-0.7787,-0.7802,-0.782,-0.7842,-0.7855,-0.7871,-0.7888,-0.7899,-0.7919,-0.7944,-0.7948,-0.7974,-0.7992,-0.8024,-0.8036,-0.8057,-0.8053,-0.8061,-0.8063,-0.8065,-0.8066,-0.802,-0.8061,-0.8061,-0.8061,-0.8061,-0.8061,0,-0.7823,-0.7835,-0.7855,-0.7878,-0.7895,-0.7894,-0.7913,-0.7928,-0.7951,-0.7968,-0.7987,-0.8015,-0.8038,-0.8053,-0.8077,-0.809,-0.8092,-0.8096,-0.8096,-0.8099,-0.8068,-0.8061,-0.8095,-0.8095,-0.8095,-0.8095,-0.8095,-0.8095,-0.7845,-0.7872,-0.7878,-0.7912,-0.7924,-0.7949,-0.796,-0.7975,-0.7989,-0.8019,-0.8038,-0.8048,-0.8065,-0.809,-0.8111,-0.8115,-0.8124,-0.8129,-0.8133,-0.8104,-0.8101,-0.8097,-0.8091,-0.8131,-0.8131,-0.8163,-0.8163,-0.8163]},{"header":{"parameterUnit":"m.s-1","parameterCategory":1,"la1":30.2991,"la2":30.254,"lo1":-89.0895,"lo2":-89.0444,"dy":0.0017,"dx":0.0017,"nx":28,"ny":28,"refTime":"2025-07-27T03:00:00:Z","depth":0,"parameterNumber":3,"parameterNumberName":"V-component_of_WINDS"},"data":[0,0,0,0,0,0,0,0,0,0,0,0,0,0,0,0,0,0,0,0,0,0,0,0,0,0,0,0,0,0,0,0,0,0,0,0,0,0,0,0,0,0,0,0,0,0,0,0,0,0,0,0,0,0,0,0,0,0,3.3974,3.3974,0,3.3965,3.3965,3.3965,3.3898,3.3896,3.3895,3.3893,3.3884,3.3885,3.3886,0,0,0,0,0,0,0,0,0,0,0,0,0,3.3933,3.3934,3.3974,3.3974,3.3974,3.3965,3.3965,3.3965,3.3898,3.3896,3.3894,3.3892,3.3883,3.3885,3.3886,0,0,0,0,0,0,0,0,0,0,0,0,0,3.394,3.3935,3.3974,3.394,3.3937,3.3965,3.3965,3.3965,3.3899,3.3896,3.3894,3.3892,3.3883,3.3884,3.3886,3.3947,0,0,3.3892,3.3893,0,0,0,0,0,0,0,0,3.394,3.3942,3.3945,3.3942,3.3939,3.393,3.3947,3.3959,3.3899,3.3913,3.3893,3.389,3.3901,3.3901,3.3905,3.3947,3.3946,3.3892,3.3893,3.3894,3.3895,0,0,0,0,0,0,0,3.3939,3.3942,3.3971,3.3945,3.3941,3.3924,3.3923,3.3949,3.3921,3.3912,3.3907,3.3907,3.3899,3.3903,3.3904,3.3946,3.3892,3.3894,3.3895,3.3896,3.4035,3.4037,0,0,0,0,0,0,3.3944,3.3942,3.3971,3.397,3.3933,3.3927,3.3925,3.3935,3.392,3.3916,3.3909,3.3904,3.3901,3.3902,3.3904,3.3972,3.3894,3.3896,3.3897,3.4032,3.4035,3.4038,0,0,0,0,0,0,3.3943,3.3947,3.3971,3.3955,3.3957,3.393,3.3942,3.3937,3.3941,3.3918,3.3913,3.3918,3.3899,3.3901,3.3936,3.397,3.3897,3.3899,3.4029,3.4033,3.4037,3.411,0,0,0,0,0,0,3.3942,3.3947,3.3971,3.3956,3.3958,3.4005,3.3945,3.3938,3.3944,3.3937,3.3926,3.3922,3.3897,3.3934,3.3938,3.3972,3.39,3.4026,3.4031,3.4035,3.4104,3.4115,3.4125,0,0,0,0,0,3.3941,3.3992,3.3972,3.3976,3.3986,3.4007,3.4008,3.3979,3.3947,3.397,3.3955,3.3922,3.3966,3.3938,3.3942,3.3977,3.4024,3.4029,3.4035,3.4099,3.4113,3.4125,0,0,0,0,0,0,3.4012,3.399,3.3967,3.4015,3.4013,3.3996,3.4023,3.3995,3.4003,3.3996,3.396,3.3958,3.3998,3.3991,3.396,3.4034,3.3989,3.3996,3.4036,3.405,3.406,3.406,3.3902,0,0,0,0,0,3.4034,3.4052,3.4032,3.4076,3.4076,3.405,3.4058,3.4036,3.4033,3.4032,3.4019,3.4017,3.403,3.404,3.4051,3.4103,3.4099,3.4129,3.414,3.4149,3.4154,3.4179,3.4192,3.4057,3.4057,3.4057,0,0,3.4078,3.4067,3.4082,3.409,3.4086,3.4105,3.405,3.4074,3.4087,3.4035,3.4067,3.4058,3.4053,3.4097,3.4115,3.4092,3.4191,3.4156,3.4163,3.4164,3.4186,3.4199,3.421,3.4061,3.406,3.4059,0,0,3.4167,3.4163,3.4197,3.4194,3.4189,3.4171,3.4179,3.4166,3.4157,3.4189,3.4149,3.4165,3.419,3.4187,3.4189,3.4276,3.4245,3.4281,3.4336,3.436,3.4371,3.438,3.4409,3.442,3.4287,3.4287,3.4287,0,3.4222,3.425,3.4219,3.4244,3.4248,3.4202,3.4236,3.4234,3.4233,3.4236,3.4211,3.4239,3.4232,3.4273,3.4294,3.4298,3.4305,3.4281,3.4372,3.4381,3.4389,3.4416,3.4427,3.4291,3.4291,3.429,3.429,0,3.4317,3.4337,3.4366,3.4365,3.4372,3.4402,3.4374,3.4385,3.4363,3.4347,3.4379,3.437,3.4377,3.4385,3.4364,3.4423,3.4408,3.4378,3.4332,3.4406,3.4431,3.4441,3.4297,3.4296,3.4295,3.4294,0,0,3.4451,3.4431,3.4442,3.444,3.443,3.4444,3.4471,3.4478,3.4487,3.4488,3.4508,3.4529,3.4501,3.4503,3.448,3.4502,3.4569,3.4469,3.4468,3.4486,3.4631,3.4652,3.4665,3.4549,3.4551,3.4552,3.463,0,3.4535,3.458,3.4552,3.4601,3.4617,3.4573,3.4596,3.4592,3.4579,3.4591,3.4575,3.459,3.4552,3.4552,3.4572,3.4557,3.4597,3.4551,3.4566,3.4567,3.4567,3.4678,3.4701,3.4775,3.464,3.4642,3.4643,0,3.4639,3.4643,3.4693,3.4678,3.4684,3.4705,3.4708,3.472,3.4714,3.4703,3.4705,3.4676,3.4701,3.4657,3.4689,3.4658,3.4663,3.4656,3.4658,3.4657,3.4608,3.4678,3.4798,3.4809,3.4658,3.4657,3.4656,0,3.4729,3.4747,3.4778,3.4778,3.4762,3.4777,3.4771,3.4763,3.4768,3.477,3.4773,3.4779,3.4782,3.4787,3.476,3.4731,3.4795,3.475,3.4785,3.4785,3.4799,3.4798,3.492,3.4806,3.4806,3.4806,3.4805,0,3.4824,3.4856,3.4818,3.4837,3.4871,3.4839,3.4873,3.4862,3.4855,3.487,3.4833,3.4849,3.4814,3.4826,3.4805,3.4834,3.4836,3.4826,3.482,3.4829,3.483,3.483,3.4823,3.4808,3.4808,3.4807,3.4807,0,3.493,3.4906,3.4937,3.4918,3.4914,3.4939,3.4923,3.494,3.4923,3.4943,3.4946,3.4921,3.4932,3.4907,3.4915,3.4902,3.4941,3.4928,3.4943,3.4938,3.4974,3.497,3.5099,3.5113,3.4992,3.4993,3.4994,0,3.4991,3.5015,3.4998,3.5005,3.5001,3.5014,3.5018,3.4987,3.4993,3.4987,3.5004,3.5013,3.5018,3.5039,3.502,3.5026,3.5011,3.5056,3.5012,3.5019,3.5009,3.5007,3.5009,3.5065,3.5066,3.5067,3.5068,0,3.5102,3.5089,3.5097,3.51,3.5106,3.5108,3.5107,3.5115,3.5081,3.509,3.5101,3.5105,3.5113,3.5121,3.5123,3.5116,3.5086,3.5082,3.509,3.5098,3.5105,3.5099,3.4966,3.5079,3.5078,3.5077,3.5077,3.5076,3.5186,3.5204,3.5194,3.5203,3.5199,3.5198,3.5212,3.5197,3.5205,3.5209,3.519,3.5205,3.5197,3.5195,3.5191,3.5202,3.5182,3.5194,3.5197,3.52,3.5205,3.5105,3.5203,3.5202,3.5202,3.5202,3.5201,0,3.5293,3.5284,3.5293,3.5292,3.5299,3.5271,3.5267,3.5275,3.5288,3.5283,3.5288,3.53,3.5308,3.529,3.5295,3.5306,3.5293,3.5309,3.5306,3.5305,3.5224,3.5215,3.5319,3.5319,3.5319,3.5319,3.5319,3.5319,3.535,3.5377,3.5362,3.5386,3.5377,3.5391,3.5391,3.539,3.5385,3.54,3.5405,3.5394,3.5383,3.5386,3.5391,3.5386,3.5388,3.5409,3.5398,3.5322,3.5311,3.53,3.5291,3.541,3.541,3.5478,3.5479,3.5479]}]]